Year,Month,Day,Hour,Minute,Value (Times are PST for temperature in C)
2020,01,30,00,00,7.30
2020,01,30,00,01,7.30
2020,01,30,00,02,7.30
2020,01,30,00,03,7.30
2020,01,30,00,04,7.40
2020,01,30,00,05,7.40
2020,01,30,00,06,7.40
2020,01,30,00,07,7.40
2020,01,30,00,08,7.40
2020,01,30,00,09,7.40
2020,01,30,00,10,7.40
2020,01,30,00,11,7.40
2020,01,30,00,12,7.30
2020,01,30,00,13,7.40
2020,01,30,00,14,7.40
2020,01,30,00,15,7.40
2020,01,30,00,16,7.40
2020,01,30,00,17,7.40
2020,01,30,00,18,7.40
2020,01,30,00,19,7.40
2020,01,30,00,20,7.40
2020,01,30,00,21,7.30
2020,01,30,00,22,7.30
2020,01,30,00,23,7.30
2020,01,30,00,24,7.30
2020,01,30,00,25,7.20
2020,01,30,00,26,7.20
2020,01,30,00,27,7.20
2020,01,30,00,28,7.20
2020,01,30,00,29,7.20
2020,01,30,00,30,7.20
2020,01,30,00,31,7.20
2020,01,30,00,32,7.20
2020,01,30,00,33,7.20
2020,01,30,00,34,7.20
2020,01,30,00,35,7.20
2020,01,30,00,36,7.30
2020,01,30,00,37,7.30
2020,01,30,00,38,7.20
2020,01,30,00,39,7.30
2020,01,30,00,40,7.30
2020,01,30,00,41,7.30
2020,01,30,00,42,7.30
2020,01,30,00,43,7.30
2020,01,30,00,44,7.30
2020,01,30,00,45,7.30
2020,01,30,00,46,7.30
2020,01,30,00,47,7.30
2020,01,30,00,48,7.30
2020,01,30,00,49,7.30
2020,01,30,00,50,7.20
2020,01,30,00,51,7.30
2020,01,30,00,52,7.30
2020,01,30,00,53,7.30
2020,01,30,00,54,7.30
2020,01,30,00,55,7.30
2020,01,30,00,56,7.30
2020,01,30,00,57,7.30
2020,01,30,00,58,7.30
2020,01,30,00,59,7.30
2020,01,30,01,00,7.30
2020,01,30,01,01,7.30
2020,01,30,01,02,7.30
2020,01,30,01,03,7.30
2020,01,30,01,04,7.30
2020,01,30,01,05,7.30
2020,01,30,01,06,7.30
2020,01,30,01,07,7.30
2020,01,30,01,08,7.30
2020,01,30,01,09,7.40
2020,01,30,01,10,7.30
2020,01,30,01,11,7.40
2020,01,30,01,12,7.40
2020,01,30,01,13,7.40
2020,01,30,01,14,7.40
2020,01,30,01,15,7.40
2020,01,30,01,16,7.40
2020,01,30,01,17,7.40
2020,01,30,01,18,7.40
2020,01,30,01,19,7.40
2020,01,30,01,20,7.30
2020,01,30,01,21,7.40
2020,01,30,01,22,7.40
2020,01,30,01,23,7.40
2020,01,30,01,24,7.40
2020,01,30,01,25,7.40
2020,01,30,01,26,7.50
2020,01,30,01,27,7.50
2020,01,30,01,28,7.60
2020,01,30,01,29,7.60
2020,01,30,01,30,7.60
2020,01,30,01,31,7.60
2020,01,30,01,32,7.60
2020,01,30,01,33,7.60
2020,01,30,01,34,7.60
2020,01,30,01,35,7.70
2020,01,30,01,36,7.70
2020,01,30,01,37,7.70
2020,01,30,01,38,7.70
2020,01,30,01,39,7.70
2020,01,30,01,40,7.70
2020,01,30,01,41,7.80
2020,01,30,01,42,7.80
2020,01,30,01,43,7.80
2020,01,30,01,44,7.80
2020,01,30,01,45,7.80
2020,01,30,01,46,7.80
2020,01,30,01,47,7.80
2020,01,30,01,48,7.90
2020,01,30,01,49,7.90
2020,01,30,01,50,7.90
2020,01,30,01,51,7.90
2020,01,30,01,52,7.90
2020,01,30,01,53,7.90
2020,01,30,01,54,7.90
2020,01,30,01,55,8.00
2020,01,30,01,56,7.90
2020,01,30,01,57,7.90
2020,01,30,01,58,7.90
2020,01,30,01,59,7.80
2020,01,30,02,00,7.80
2020,01,30,02,01,7.80
2020,01,30,02,02,7.70
2020,01,30,02,03,7.70
2020,01,30,02,04,7.70
2020,01,30,02,05,7.70
2020,01,30,02,06,7.70
2020,01,30,02,07,7.60
2020,01,30,02,08,7.60
2020,01,30,02,09,7.60
2020,01,30,02,10,7.70
2020,01,30,02,11,7.60
2020,01,30,02,12,7.60
2020,01,30,02,13,7.60
2020,01,30,02,14,7.60
2020,01,30,02,15,7.60
2020,01,30,02,16,7.60
2020,01,30,02,17,7.60
2020,01,30,02,18,7.60
2020,01,30,02,19,7.60
2020,01,30,02,20,7.50
2020,01,30,02,21,7.50
2020,01,30,02,22,7.50
2020,01,30,02,23,7.50
2020,01,30,02,24,7.50
2020,01,30,02,25,7.50
2020,01,30,02,26,7.50
2020,01,30,02,27,7.50
2020,01,30,02,28,7.50
2020,01,30,02,29,7.50
2020,01,30,02,30,7.50
2020,01,30,03,06,7.30
2020,01,30,03,07,7.30
2020,01,30,03,08,7.30
2020,01,30,03,09,7.30
2020,01,30,03,10,7.30
2020,01,30,03,11,7.30
2020,01,30,03,12,7.30
2020,01,30,03,13,7.30
2020,01,30,03,14,7.30
2020,01,30,03,15,7.30
2020,01,30,03,16,7.30
2020,01,30,03,17,7.30
2020,01,30,03,18,7.30
2020,01,30,03,19,7.30
2020,01,30,03,20,7.30
2020,01,30,03,21,7.30
2020,01,30,03,22,7.30
2020,01,30,03,23,7.30
2020,01,30,03,24,7.30
2020,01,30,03,25,7.20
2020,01,30,03,26,7.20
2020,01,30,03,27,7.20
2020,01,30,03,28,7.20
2020,01,30,03,29,7.20
2020,01,30,03,30,7.20
2020,01,30,03,31,7.20
2020,01,30,03,32,7.20
2020,01,30,03,33,7.20
2020,01,30,03,34,7.20
2020,01,30,03,35,7.20
2020,01,30,03,36,7.20
2020,01,30,03,37,7.20
2020,01,30,03,38,7.20
2020,01,30,03,39,7.20
2020,01,30,03,40,7.10
2020,01,30,03,41,7.20
2020,01,30,03,42,7.20
2020,01,30,03,43,7.20
2020,01,30,03,44,7.20
2020,01,30,03,45,7.20
2020,01,30,03,46,7.20
2020,01,30,03,47,7.20
2020,01,30,03,48,7.20
2020,01,30,03,49,7.20
2020,01,30,03,50,7.20
2020,01,30,03,51,7.10
2020,01,30,03,52,7.20
2020,01,30,03,53,7.20
2020,01,30,03,54,7.20
2020,01,30,03,55,7.10
2020,01,30,03,56,7.10
2020,01,30,03,57,7.10
2020,01,30,03,58,7.10
2020,01,30,03,59,7.00
2020,01,30,04,00,7.00
2020,01,30,04,01,7.00
2020,01,30,04,02,7.00
2020,01,30,04,03,7.00
2020,01,30,04,04,7.00
2020,01,30,04,05,7.00
2020,01,30,04,06,6.90
2020,01,30,04,07,6.90
2020,01,30,04,08,6.90
2020,01,30,04,09,6.90
2020,01,30,04,10,6.90
2020,01,30,04,11,6.90
2020,01,30,04,12,7.00
2020,01,30,04,13,7.00
2020,01,30,04,14,6.90
2020,01,30,04,15,6.90
2020,01,30,04,16,6.90
2020,01,30,04,17,6.90
2020,01,30,04,18,6.90
2020,01,30,04,19,6.90
2020,01,30,04,20,6.90
2020,01,30,04,21,6.90
2020,01,30,04,22,6.90
2020,01,30,04,23,6.90
2020,01,30,04,24,6.90
2020,01,30,04,25,6.90
2020,01,30,04,26,6.90
2020,01,30,04,27,6.90
2020,01,30,04,28,6.90
2020,01,30,04,29,6.90
2020,01,30,04,30,6.80
2020,01,30,04,31,6.90
2020,01,30,04,32,6.80
2020,01,30,04,33,6.80
2020,01,30,04,34,6.80
2020,01,30,04,35,6.80
2020,01,30,04,36,6.80
2020,01,30,04,37,6.80
2020,01,30,04,38,6.80
2020,01,30,04,39,6.80
2020,01,30,04,40,6.80
2020,01,30,04,41,6.80
2020,01,30,04,42,6.80
2020,01,30,04,43,6.70
2020,01,30,04,44,6.70
2020,01,30,04,45,6.70
2020,01,30,04,46,6.70
2020,01,30,04,47,6.70
2020,01,30,04,48,6.70
2020,01,30,04,49,6.70
2020,01,30,04,50,6.70
2020,01,30,04,51,6.70
2020,01,30,04,52,6.70
2020,01,30,04,53,6.70
2020,01,30,04,54,6.70
2020,01,30,04,55,6.70
2020,01,30,04,56,6.70
2020,01,30,04,57,6.70
2020,01,30,04,58,6.70
2020,01,30,04,59,6.70
2020,01,30,05,00,6.70
2020,01,30,05,01,6.70
2020,01,30,05,02,6.70
2020,01,30,05,03,6.70
2020,01,30,05,04,6.70
2020,01,30,05,05,6.70
2020,01,30,05,06,6.70
2020,01,30,05,07,6.70
2020,01,30,05,08,6.80
2020,01,30,05,09,6.70
2020,01,30,05,10,6.70
2020,01,30,05,11,6.80
2020,01,30,05,12,6.70
2020,01,30,05,13,6.80
2020,01,30,05,14,6.70
2020,01,30,05,15,6.70
2020,01,30,05,16,6.70
2020,01,30,05,17,6.70
2020,01,30,05,18,6.70
2020,01,30,05,19,6.70
2020,01,30,05,20,6.70
2020,01,30,05,21,6.70
2020,01,30,05,22,6.70
2020,01,30,05,23,6.70
2020,01,30,05,24,6.60
2020,01,30,05,25,6.60
2020,01,30,05,26,6.60
2020,01,30,05,27,6.60
2020,01,30,05,28,6.60
2020,01,30,05,29,6.60
2020,01,30,05,30,6.60
2020,01,30,05,31,6.60
2020,01,30,05,32,6.60
2020,01,30,05,33,6.60
2020,01,30,05,34,6.60
2020,01,30,05,35,6.50
2020,01,30,05,36,6.50
2020,01,30,05,37,6.40
2020,01,30,05,38,6.40
2020,01,30,05,39,6.40
2020,01,30,05,40,6.40
2020,01,30,05,41,6.40
2020,01,30,05,42,6.40
2020,01,30,05,43,6.40
2020,01,30,05,44,6.40
2020,01,30,05,45,6.40
2020,01,30,05,46,6.40
2020,01,30,05,47,6.40
2020,01,30,05,48,6.40
2020,01,30,05,49,6.40
2020,01,30,05,50,6.40
2020,01,30,05,51,6.40
2020,01,30,05,52,6.40
2020,01,30,05,53,6.40
2020,01,30,05,54,6.40
2020,01,30,05,55,6.40
2020,01,30,05,56,6.40
2020,01,30,05,57,6.40
2020,01,30,05,58,6.40
2020,01,30,05,59,6.40
2020,01,30,06,00,6.40
2020,01,30,06,01,6.40
2020,01,30,06,02,6.40
2020,01,30,06,03,6.40
2020,01,30,06,04,6.40
2020,01,30,06,05,6.40
2020,01,30,06,06,6.50
2020,01,30,06,07,6.50
2020,01,30,06,08,6.50
2020,01,30,06,09,6.60
2020,01,30,06,10,6.50
2020,01,30,06,11,6.40
2020,01,30,06,12,6.40
2020,01,30,06,13,6.40
2020,01,30,06,14,6.40
2020,01,30,06,15,6.40
2020,01,30,06,16,6.40
2020,01,30,06,17,6.40
2020,01,30,06,18,6.40
2020,01,30,06,19,6.40
2020,01,30,06,20,6.40
2020,01,30,06,21,6.40
2020,01,30,06,22,6.40
2020,01,30,06,23,6.40
2020,01,30,06,24,6.40
2020,01,30,06,25,6.40
2020,01,30,06,26,6.40
2020,01,30,06,27,6.40
2020,01,30,06,28,6.40
2020,01,30,06,29,6.40
2020,01,30,06,30,6.40
2020,01,30,06,31,6.40
2020,01,30,06,32,6.40
2020,01,30,06,33,6.40
2020,01,30,06,34,6.40
2020,01,30,06,35,6.40
2020,01,30,06,36,6.30
2020,01,30,06,37,6.30
2020,01,30,06,38,6.30
2020,01,30,06,39,6.30
2020,01,30,06,40,6.40
2020,01,30,06,41,6.30
2020,01,30,06,42,6.30
2020,01,30,06,43,6.30
2020,01,30,06,44,6.30
2020,01,30,06,45,6.30
2020,01,30,06,46,6.30
2020,01,30,06,47,6.30
2020,01,30,06,48,6.30
2020,01,30,06,49,6.30
2020,01,30,06,50,6.30
2020,01,30,06,51,6.30
2020,01,30,06,52,6.30
2020,01,30,06,53,6.30
2020,01,30,06,54,6.30
2020,01,30,06,55,6.30
2020,01,30,06,56,6.30
2020,01,30,06,57,6.30
2020,01,30,06,58,6.30
2020,01,30,06,59,6.30
2020,01,30,07,00,6.30
2020,01,30,07,01,6.30
2020,01,30,07,02,6.30
2020,01,30,07,03,6.30
2020,01,30,07,04,6.30
2020,01,30,07,05,6.30
2020,01,30,07,06,6.30
2020,01,30,07,07,6.30
2020,01,30,07,08,6.30
2020,01,30,07,09,6.30
2020,01,30,07,10,6.30
2020,01,30,07,11,6.30
2020,01,30,07,12,6.30
2020,01,30,07,13,6.30
2020,01,30,07,14,6.30
2020,01,30,07,15,6.30
2020,01,30,07,16,6.30
2020,01,30,07,17,6.30
2020,01,30,07,18,6.30
2020,01,30,07,19,6.30
2020,01,30,07,20,6.30
2020,01,30,07,21,6.30
2020,01,30,07,22,6.30
2020,01,30,07,23,6.30
2020,01,30,07,24,6.30
2020,01,30,07,25,6.40
2020,01,30,07,26,6.40
2020,01,30,07,27,6.40
2020,01,30,07,28,6.40
2020,01,30,07,29,6.40
2020,01,30,07,30,6.30
2020,01,30,07,31,6.40
2020,01,30,07,32,6.40
2020,01,30,07,33,6.40
2020,01,30,07,34,6.40
2020,01,30,07,35,6.40
2020,01,30,07,36,6.40
2020,01,30,07,37,6.40
2020,01,30,07,38,6.40
2020,01,30,07,39,6.40
2020,01,30,07,40,6.40
2020,01,30,07,41,6.30
2020,01,30,07,42,6.40
2020,01,30,07,43,6.40
2020,01,30,07,44,6.30
2020,01,30,07,45,6.40
2020,01,30,07,46,6.40
2020,01,30,07,47,6.40
2020,01,30,07,48,6.30
2020,01,30,07,49,6.40
2020,01,30,07,50,6.40
2020,01,30,07,51,6.30
2020,01,30,07,52,6.30
2020,01,30,07,53,6.30
2020,01,30,07,54,6.30
2020,01,30,07,55,6.40
2020,01,30,07,56,6.40
2020,01,30,07,57,6.30
2020,01,30,07,58,6.30
2020,01,30,07,59,6.30
2020,01,30,08,00,6.30
2020,01,30,08,01,6.30
2020,01,30,08,02,6.30
2020,01,30,08,03,6.30
2020,01,30,08,04,6.30
2020,01,30,08,05,6.30
2020,01,30,08,06,6.40
2020,01,30,08,07,6.40
2020,01,30,08,08,6.40
2020,01,30,08,09,6.40
2020,01,30,08,10,6.40
2020,01,30,08,11,6.40
2020,01,30,08,12,6.30
2020,01,30,08,13,6.30
2020,01,30,08,14,6.30
2020,01,30,08,15,6.30
2020,01,30,08,16,6.30
2020,01,30,08,17,6.30
2020,01,30,08,18,6.30
2020,01,30,08,19,6.40
2020,01,30,08,20,6.30
2020,01,30,08,21,6.30
2020,01,30,08,22,6.30
2020,01,30,08,23,6.30
2020,01,30,08,24,6.30
2020,01,30,08,25,6.30
2020,01,30,08,26,6.40
2020,01,30,08,27,6.40
2020,01,30,08,28,6.30
2020,01,30,08,29,6.30
2020,01,30,08,30,6.30
2020,01,30,08,31,6.30
2020,01,30,08,32,6.30
2020,01,30,08,33,6.30
2020,01,30,08,34,6.30
2020,01,30,08,35,6.30
2020,01,30,08,36,6.30
2020,01,30,08,37,6.30
2020,01,30,08,38,6.30
2020,01,30,08,39,6.30
2020,01,30,08,40,6.30
2020,01,30,08,41,6.30
2020,01,30,08,42,6.30
2020,01,30,08,43,6.30
2020,01,30,08,44,6.40
2020,01,30,08,45,6.40
2020,01,30,08,46,6.40
2020,01,30,08,47,6.40
2020,01,30,08,48,6.40
2020,01,30,08,49,6.40
2020,01,30,08,50,6.40
2020,01,30,08,51,6.40
2020,01,30,08,52,6.50
2020,01,30,08,53,6.50
2020,01,30,08,54,6.50
2020,01,30,08,55,6.60
2020,01,30,08,56,6.60
2020,01,30,08,57,6.50
2020,01,30,08,58,6.50
2020,01,30,08,59,6.50
2020,01,30,09,00,6.60
2020,01,30,09,01,6.50
2020,01,30,09,02,6.50
2020,01,30,09,03,6.50
2020,01,30,09,04,6.50
2020,01,30,09,05,6.50
2020,01,30,09,06,6.60
2020,01,30,09,07,6.60
2020,01,30,09,08,6.60
2020,01,30,09,09,6.60
2020,01,30,09,10,6.60
2020,01,30,09,11,6.50
2020,01,30,09,12,6.50
2020,01,30,09,13,6.50
2020,01,30,09,14,6.50
2020,01,30,09,15,6.50
2020,01,30,09,16,6.50
2020,01,30,09,17,6.50
2020,01,30,09,18,6.60
2020,01,30,09,19,6.60
2020,01,30,09,20,6.60
2020,01,30,09,21,6.60
2020,01,30,09,22,6.60
2020,01,30,09,23,6.60
2020,01,30,09,24,6.60
2020,01,30,09,25,6.70
2020,01,30,09,26,6.60
2020,01,30,09,27,6.60
2020,01,30,09,28,6.60
2020,01,30,09,29,6.60
2020,01,30,09,30,6.60
2020,01,30,09,31,6.60
2020,01,30,09,32,6.60
2020,01,30,09,33,6.60
2020,01,30,09,34,6.60
2020,01,30,09,35,6.60
2020,01,30,09,36,6.60
2020,01,30,09,37,6.60
2020,01,30,09,38,6.60
2020,01,30,09,39,6.60
2020,01,30,09,40,6.70
2020,01,30,09,41,6.60
2020,01,30,09,42,6.60
2020,01,30,09,43,6.60
2020,01,30,09,44,6.60
2020,01,30,09,45,6.60
2020,01,30,09,46,6.60
2020,01,30,09,47,6.60
2020,01,30,09,48,6.60
2020,01,30,09,49,6.60
2020,01,30,09,50,6.60
2020,01,30,09,51,6.60
2020,01,30,09,52,6.60
2020,01,30,09,53,6.60
2020,01,30,09,54,6.60
2020,01,30,09,55,6.60
2020,01,30,09,56,6.60
2020,01,30,09,57,6.60
2020,01,30,09,58,6.50
2020,01,30,09,59,6.40
2020,01,30,10,00,6.40
2020,01,30,10,01,6.50
2020,01,30,10,02,6.60
2020,01,30,10,03,6.60
2020,01,30,10,04,6.60
2020,01,30,10,05,6.50
2020,01,30,10,06,6.50
2020,01,30,10,07,6.50
2020,01,30,10,08,6.50
2020,01,30,10,09,6.60
2020,01,30,10,10,6.60
2020,01,30,10,11,6.50
2020,01,30,10,12,6.60
2020,01,30,10,13,6.60
2020,01,30,10,14,6.50
2020,01,30,10,15,6.50
2020,01,30,10,16,6.50
2020,01,30,10,17,6.40
2020,01,30,10,18,6.50
2020,01,30,10,19,6.60
2020,01,30,10,20,6.60
2020,01,30,10,21,6.60
2020,01,30,10,22,6.60
2020,01,30,10,23,6.60
2020,01,30,10,24,6.60
2020,01,30,10,25,6.60
2020,01,30,10,26,6.70
2020,01,30,10,27,6.70
2020,01,30,10,28,6.70
2020,01,30,10,29,6.70
2020,01,30,10,30,6.70
2020,01,30,10,31,6.70
2020,01,30,10,32,6.70
2020,01,30,10,33,6.70
2020,01,30,10,34,6.70
2020,01,30,10,35,6.70
2020,01,30,10,36,6.60
2020,01,30,10,37,6.60
2020,01,30,10,38,6.60
2020,01,30,10,39,6.60
2020,01,30,10,40,6.60
2020,01,30,10,41,6.70
2020,01,30,10,42,6.70
2020,01,30,10,43,6.60
2020,01,30,10,44,6.60
2020,01,30,10,45,6.60
2020,01,30,10,46,6.70
2020,01,30,10,47,6.60
2020,01,30,10,48,6.60
2020,01,30,10,49,6.70
2020,01,30,10,50,6.70
2020,01,30,10,51,6.70
2020,01,30,10,52,6.70
2020,01,30,10,53,6.70
2020,01,30,10,54,6.70
2020,01,30,10,55,6.60
2020,01,30,10,56,6.70
2020,01,30,10,57,6.60
2020,01,30,10,58,6.70
2020,01,30,10,59,6.70
2020,01,30,11,00,6.60
2020,01,30,11,01,6.60
2020,01,30,11,02,6.70
2020,01,30,11,03,6.70
2020,01,30,11,04,6.60
2020,01,30,11,05,6.70
2020,01,30,11,06,6.60
2020,01,30,11,07,6.70
2020,01,30,11,08,6.70
2020,01,30,11,09,6.70
2020,01,30,11,10,6.70
2020,01,30,11,11,6.70
2020,01,30,11,12,6.70
2020,01,30,11,13,6.70
2020,01,30,11,14,6.70
2020,01,30,11,15,6.70
2020,01,30,11,16,6.70
2020,01,30,11,17,6.70
2020,01,30,11,18,6.60
2020,01,30,11,19,6.60
2020,01,30,11,20,6.60
2020,01,30,11,21,6.60
2020,01,30,11,22,6.70
2020,01,30,11,23,6.70
2020,01,30,11,24,6.70
2020,01,30,11,25,6.70
2020,01,30,11,26,6.70
2020,01,30,11,27,6.70
2020,01,30,11,28,6.70
2020,01,30,11,29,6.70
2020,01,30,11,30,6.70
2020,01,30,11,31,6.70
2020,01,30,11,32,6.70
2020,01,30,11,33,6.70
2020,01,30,11,34,6.70
2020,01,30,11,35,6.70
2020,01,30,11,36,6.70
2020,01,30,11,37,6.70
2020,01,30,11,38,6.80
2020,01,30,11,39,6.70
2020,01,30,11,40,6.70
2020,01,30,11,41,6.70
2020,01,30,11,42,6.70
2020,01,30,11,43,6.70
2020,01,30,11,44,6.70
2020,01,30,11,45,6.70
2020,01,30,11,46,6.70
2020,01,30,11,47,6.70
2020,01,30,11,48,6.70
2020,01,30,11,49,6.70
2020,01,30,11,50,6.80
2020,01,30,11,51,6.80
2020,01,30,11,52,6.80
2020,01,30,11,53,6.80
2020,01,30,11,54,6.80
2020,01,30,11,55,6.80
2020,01,30,11,56,6.80
2020,01,30,11,57,6.80
2020,01,30,11,58,6.90
2020,01,30,11,59,7.00
2020,01,30,12,00,7.20
2020,01,30,12,01,7.20
2020,01,30,12,02,7.30
2020,01,30,12,03,7.30
2020,01,30,12,04,7.20
2020,01,30,12,05,7.20
2020,01,30,12,06,7.20
2020,01,30,12,07,7.20
2020,01,30,12,08,7.20
2020,01,30,12,09,7.20
2020,01,30,12,10,7.30
2020,01,30,12,11,7.30
2020,01,30,12,12,7.30
2020,01,30,12,13,7.30
2020,01,30,12,14,7.30
2020,01,30,12,15,7.30
2020,01,30,12,16,7.30
2020,01,30,12,17,7.30
2020,01,30,12,18,7.30
2020,01,30,12,19,7.30
2020,01,30,12,20,7.40
2020,01,30,12,21,7.40
2020,01,30,12,22,7.40
2020,01,30,12,23,7.40
2020,01,30,12,24,7.50
2020,01,30,12,25,7.50
2020,01,30,12,26,7.50
2020,01,30,12,27,7.60
2020,01,30,12,28,7.60
2020,01,30,12,29,7.60
2020,01,30,12,30,7.60
2020,01,30,12,31,7.60
2020,01,30,12,32,7.60
2020,01,30,12,33,7.70
2020,01,30,12,34,7.70
2020,01,30,12,35,7.70
2020,01,30,12,36,7.70
2020,01,30,12,37,7.70
2020,01,30,12,38,7.70
2020,01,30,12,39,7.80
2020,01,30,12,40,7.80
2020,01,30,12,41,7.80
2020,01,30,12,42,7.80
2020,01,30,12,43,7.80
2020,01,30,12,44,7.80
2020,01,30,12,45,7.70
2020,01,30,12,46,7.70
2020,01,30,12,47,7.70
2020,01,30,12,48,7.70
2020,01,30,12,49,7.70
2020,01,30,12,50,7.70
2020,01,30,12,51,7.70
2020,01,30,12,52,7.70
2020,01,30,12,53,7.70
2020,01,30,12,54,7.70
2020,01,30,12,55,7.70
2020,01,30,12,56,7.70
2020,01,30,12,57,7.70
2020,01,30,12,58,7.60
2020,01,30,12,59,7.60
2020,01,30,13,00,7.60
2020,01,30,13,01,7.60
2020,01,30,13,02,7.60
2020,01,30,13,03,7.60
2020,01,30,13,04,7.50
2020,01,30,13,05,7.50
2020,01,30,13,06,7.50
2020,01,30,13,07,7.50
2020,01,30,13,08,7.50
2020,01,30,13,09,7.50
2020,01,30,13,10,7.50
2020,01,30,13,11,7.50
2020,01,30,13,12,7.50
2020,01,30,13,13,7.50
2020,01,30,13,14,7.50
2020,01,30,13,15,7.50
2020,01,30,13,16,7.50
2020,01,30,13,17,7.50
2020,01,30,13,18,7.60
2020,01,30,13,19,7.60
2020,01,30,13,20,7.60
2020,01,30,13,21,7.60
2020,01,30,13,22,7.60
2020,01,30,13,23,7.60
2020,01,30,13,24,7.60
2020,01,30,13,25,7.60
2020,01,30,13,26,7.60
2020,01,30,13,27,7.60
2020,01,30,13,28,7.60
2020,01,30,13,29,7.60
2020,01,30,13,30,7.60
2020,01,30,13,31,7.60
2020,01,30,13,32,7.60
2020,01,30,13,33,7.60
2020,01,30,13,34,7.60
2020,01,30,13,35,7.60
2020,01,30,13,36,7.60
2020,01,30,13,37,7.60
2020,01,30,13,38,7.60
2020,01,30,13,39,7.60
2020,01,30,13,40,7.60
2020,01,30,13,41,7.70
2020,01,30,13,42,7.60
2020,01,30,13,43,7.70
2020,01,30,13,44,7.70
2020,01,30,13,45,7.70
2020,01,30,13,46,7.70
2020,01,30,13,47,7.70
2020,01,30,13,48,7.70
2020,01,30,13,49,7.70
2020,01,30,13,50,7.70
2020,01,30,13,51,7.70
2020,01,30,13,52,7.70
2020,01,30,13,53,7.70
2020,01,30,13,54,7.70
2020,01,30,13,55,7.60
2020,01,30,13,56,7.60
2020,01,30,13,57,7.50
2020,01,30,13,58,7.50
2020,01,30,13,59,7.50
2020,01,30,14,00,7.50
2020,01,30,14,01,7.50
2020,01,30,14,02,7.40
2020,01,30,14,03,7.40
2020,01,30,14,04,7.40
2020,01,30,14,05,7.40
2020,01,30,14,06,7.40
2020,01,30,14,07,7.40
2020,01,30,15,06,6.90
2020,01,30,15,07,6.90
2020,01,30,15,08,6.90
2020,01,30,15,09,6.90
2020,01,30,15,10,6.90
2020,01,30,15,11,6.90
2020,01,30,15,12,6.90
2020,01,30,15,13,6.90
2020,01,30,15,14,6.80
2020,01,30,15,15,6.80
2020,01,30,15,16,6.80
2020,01,30,15,17,6.90
2020,01,30,15,18,6.80
2020,01,30,15,19,6.80
2020,01,30,15,20,6.80
2020,01,30,15,21,6.80
2020,01,30,15,22,6.80
2020,01,30,15,23,6.80
2020,01,30,15,24,6.80
2020,01,30,15,25,6.80
2020,01,30,15,26,6.80
2020,01,30,15,27,6.80
2020,01,30,15,28,6.80
2020,01,30,15,29,6.80
2020,01,30,15,30,6.80
2020,01,30,15,31,6.80
2020,01,30,15,32,6.80
2020,01,30,15,33,6.80
2020,01,30,15,34,6.80
2020,01,30,15,35,6.80
2020,01,30,16,09,7.00
2020,01,30,16,10,7.00
2020,01,30,16,11,6.90
2020,01,30,16,12,6.90
2020,01,30,16,13,6.90
2020,01,30,16,14,7.00
2020,01,30,16,15,7.00
2020,01,30,16,16,7.00
2020,01,30,16,17,7.00
2020,01,30,16,18,6.90
2020,01,30,16,19,6.90
2020,01,30,16,20,7.00
2020,01,30,16,21,6.90
2020,01,30,16,22,7.00
2020,01,30,16,23,7.00
2020,01,30,16,24,7.00
2020,01,30,16,25,6.90
2020,01,30,16,26,6.90
2020,01,30,16,27,7.00
2020,01,30,16,28,7.00
2020,01,30,16,29,7.00
2020,01,30,16,30,7.00
2020,01,30,16,31,7.00
2020,01,30,16,32,7.00
2020,01,30,16,33,7.00
2020,01,30,16,34,7.10
2020,01,30,16,35,7.10
2020,01,30,16,36,7.10
2020,01,30,16,37,7.10
2020,01,30,16,38,7.10
2020,01,30,16,39,7.00
2020,01,30,16,40,7.00
2020,01,30,16,41,7.00
2020,01,30,16,42,7.00
2020,01,30,16,43,7.10
2020,01,30,16,44,7.10
2020,01,30,16,45,7.10
2020,01,30,16,46,7.10
2020,01,30,16,47,7.10
2020,01,30,16,48,7.00
2020,01,30,16,49,7.00
2020,01,30,16,50,6.90
2020,01,30,16,51,6.90
2020,01,30,16,52,6.90
2020,01,30,16,53,7.00
2020,01,30,16,54,6.90
2020,01,30,16,55,6.90
2020,01,30,16,56,6.90
2020,01,30,16,57,6.90
2020,01,30,16,58,6.90
2020,01,30,16,59,6.90
2020,01,30,17,00,6.90
2020,01,30,17,01,6.90
2020,01,30,17,02,6.90
2020,01,30,17,03,6.80
2020,01,30,17,04,6.80
2020,01,30,17,05,6.80
2020,01,30,17,06,6.80
2020,01,30,17,07,6.80
2020,01,30,17,08,6.80
2020,01,30,17,09,6.80
2020,01,30,17,10,6.80
2020,01,30,17,11,6.80
2020,01,30,17,12,6.80
2020,01,30,18,06,6.60
2020,01,30,18,07,6.60
2020,01,30,18,08,6.70
2020,01,30,18,09,6.70
2020,01,30,18,10,6.70
2020,01,30,18,11,6.70
2020,01,30,18,12,6.70
2020,01,30,18,13,6.70
2020,01,30,18,14,6.60
2020,01,30,18,15,6.60
2020,01,30,18,16,6.60
2020,01,30,18,17,6.60
2020,01,30,18,18,6.60
2020,01,30,18,19,6.60
2020,01,30,18,20,6.60
2020,01,30,18,21,6.60
2020,01,30,18,22,6.60
2020,01,30,18,23,6.60
2020,01,30,18,24,6.60
2020,01,30,18,25,6.70
2020,01,30,18,26,6.70
2020,01,30,18,27,6.70
2020,01,30,18,28,6.70
2020,01,30,18,29,6.70
2020,01,30,18,30,6.70
2020,01,30,18,31,6.70
2020,01,30,18,32,6.70
2020,01,30,18,33,6.80
2020,01,30,18,34,6.80
2020,01,30,18,35,6.80
2020,01,30,18,36,6.80
2020,01,30,18,37,6.80
2020,01,30,18,38,6.80
2020,01,30,18,39,6.80
2020,01,30,18,40,6.70
2020,01,30,18,41,6.80
2020,01,30,18,42,6.80
2020,01,30,18,43,6.80
2020,01,30,18,44,6.80
2020,01,30,18,45,6.80
2020,01,30,18,46,6.80
2020,01,30,18,47,6.90
2020,01,30,18,48,6.80
2020,01,30,18,49,6.80
2020,01,30,18,50,6.80
2020,01,30,18,51,6.80
2020,01,30,18,52,6.80
2020,01,30,18,53,6.80
2020,01,30,18,54,6.90
2020,01,30,18,55,6.90
2020,01,30,18,56,7.00
2020,01,30,18,57,7.10
2020,01,30,18,58,7.10
2020,01,30,18,59,7.10
2020,01,30,19,00,7.10
2020,01,30,19,01,7.10
2020,01,30,19,02,7.10
2020,01,30,19,03,7.10
2020,01,30,19,04,7.10
2020,01,30,19,05,7.20
2020,01,30,19,06,7.20
2020,01,30,19,07,7.20
2020,01,30,19,08,7.20
2020,01,30,19,09,7.30
2020,01,30,19,10,7.30
2020,01,30,19,11,7.40
2020,01,30,19,12,7.40
2020,01,30,19,13,7.30
2020,01,30,19,14,7.30
2020,01,30,19,15,7.30
2020,01,30,19,16,7.20
2020,01,30,19,17,7.20
2020,01,30,19,18,7.10
2020,01,30,19,19,7.10
2020,01,30,19,20,7.20
2020,01,30,19,21,7.20
2020,01,30,19,22,7.20
2020,01,30,19,23,7.20
2020,01,30,19,24,7.30
2020,01,30,19,25,7.30
2020,01,30,19,26,7.30
2020,01,30,19,27,7.30
2020,01,30,19,28,7.30
2020,01,30,19,29,7.30
2020,01,30,19,30,7.30
2020,01,30,19,31,7.20
2020,01,30,19,32,7.30
2020,01,30,19,33,7.20
2020,01,30,19,34,7.20
2020,01,30,19,35,7.20
2020,01,30,19,36,7.20
2020,01,30,19,37,7.20
2020,01,30,19,38,7.20
2020,01,30,19,39,7.20
2020,01,30,19,40,7.20
2020,01,30,19,41,7.20
2020,01,30,19,42,7.20
2020,01,30,19,43,7.20
2020,01,30,19,44,7.20
2020,01,30,19,45,7.20
2020,01,30,19,46,7.20
2020,01,30,19,47,7.20
2020,01,30,19,48,7.20
2020,01,30,19,49,7.20
2020,01,30,19,50,7.20
2020,01,30,19,51,7.20
2020,01,30,19,52,7.20
2020,01,30,19,53,7.20
2020,01,30,19,54,7.20
2020,01,30,19,55,7.20
2020,01,30,19,56,7.20
2020,01,30,19,57,7.30
2020,01,30,19,58,7.30
2020,01,30,19,59,7.30
2020,01,30,20,00,7.30
2020,01,30,20,01,7.30
2020,01,30,20,02,7.30
2020,01,30,20,03,7.20
2020,01,30,20,04,7.20
2020,01,30,20,05,7.20
2020,01,30,20,06,7.20
2020,01,30,20,07,7.20
2020,01,30,20,08,7.30
2020,01,30,20,09,7.20
2020,01,30,20,10,7.30
2020,01,30,20,11,7.20
2020,01,30,20,12,7.30
2020,01,30,20,13,7.30
2020,01,30,20,14,7.30
2020,01,30,20,15,7.30
2020,01,30,20,16,7.30
2020,01,30,20,17,7.30
2020,01,30,20,18,7.40
2020,01,30,20,19,7.40
2020,01,30,20,20,7.40
2020,01,30,20,21,7.40
2020,01,30,20,22,7.40
2020,01,30,20,23,7.40
2020,01,30,20,24,7.40
2020,01,30,20,25,7.40
2020,01,30,20,26,7.50
2020,01,30,20,27,7.50
2020,01,30,20,28,7.50
2020,01,30,20,29,7.50
2020,01,30,20,30,7.50
2020,01,30,20,31,7.50
2020,01,30,20,32,7.50
2020,01,30,20,33,7.50
2020,01,30,20,34,7.50
2020,01,30,20,35,7.60
2020,01,30,20,36,7.50
2020,01,30,20,37,7.60
2020,01,30,20,38,7.60
2020,01,30,20,39,7.60
2020,01,30,20,40,7.60
2020,01,30,20,41,7.60
2020,01,30,20,42,7.60
2020,01,30,20,43,7.60
2020,01,30,20,44,7.60
2020,01,30,20,45,7.60
2020,01,30,20,46,7.70
2020,01,30,20,47,7.70
2020,01,30,20,48,7.70
2020,01,30,20,49,7.70
2020,01,30,20,50,7.70
2020,01,30,20,51,7.70
2020,01,30,20,52,7.70
2020,01,30,20,53,7.70
2020,01,30,20,54,7.70
2020,01,30,20,55,7.70
2020,01,30,20,56,7.70
2020,01,30,20,57,7.70
2020,01,30,20,58,7.70
2020,01,30,20,59,7.70
2020,01,30,21,00,7.70
2020,01,30,21,01,7.70
2020,01,30,21,02,7.70
2020,01,30,21,03,7.80
2020,01,30,21,04,7.80
2020,01,30,21,05,7.80